This is the latest recevied weather packets stored in our database for station/object OK1LPD-6. If no packets are shown the sender has not sent any weather packets the latest 10 day(s).
| Time | Temp. | Humidity | Pressure | Rain* | Wind** | Luminosity | Snow |
|---|---|---|---|---|---|---|---|
| 1787558772 | 20° C | 50% | 1023.7 hPa | 0 mm | - | - | - |
| 1787558172 | 20.56° C | 49% | 1023.7 hPa | 0 mm | - | - | - |
| 1787557590 | 20° C | 52% | 1023.6 hPa | 0 mm | - | - | - |
| 1787556972 | 20.56° C | 53% | 1023.5 hPa | 0 mm | - | - | - |
| 1787556373 | 20° C | 55% | 1023.7 hPa | 0 mm | - | - | - |
| 1787555793 | 18.89° C | 59% | 1023.7 hPa | 0 mm | - | - | - |
| 1787555172 | 18.33° C | 60% | 1023.7 hPa | 0 mm | - | - | - |
| 1787554573 | 17.78° C | 62% | 1023.8 hPa | 0 mm | - | - | - |
| 1787553991 | 16.11° C | 69% | 1023.9 hPa | 0 mm | - | - | - |
| 1787553373 | 15.56° C | 71% | 1023.9 hPa | 0 mm | - | - | - |
| 1787552773 | 15° C | 70% | 1023.8 hPa | 0 mm | - | - | - |
| 1787552194 | 15° C | 71% | 1023.9 hPa | 0 mm | - | - | - |
| 1787551573 | 14.44° C | 72% | 1024 hPa | 0 mm | - | - | - |
| 1787550974 | 13.89° C | 79% | 1023.8 hPa | 0 mm | - | - | - |
| 1787550391 | 12.22° C | 84% | 1023.8 hPa | 0 mm | - | - | - |
| 1787549773 | 11.67° C | 86% | 1023.8 hPa | 0 mm | - | - | - |
| 1787549173 | 11.67° C | 93% | 1023.7 hPa | 0 mm | - | - | - |
| 1787548594 | 10° C | 94% | 1023.7 hPa | 0 mm | - | - | - |
| 1787547974 | 10° C | 95% | 1023.6 hPa | 0 mm | - | - | - |
| 1787547373 | 10° C | 95% | 1023.7 hPa | 0 mm | - | - | - |
| 1787546791 | 9.44° C | 94% | 1023.6 hPa | 0 mm | - | - | - |
| 1787546173 | 8.89° C | 94% | 1023.6 hPa | 0 mm | - | - | - |
| 1787545574 | 8.89° C | 94% | 1023.4 hPa | 0 mm | - | - | - |
| 1787544992 | 8.89° C | 94% | 1023.4 hPa | 0 mm | - | - | - |
| 1787544374 | 8.89° C | 94% | 1023.4 hPa | 0 mm | - | - | - |
* Rain latest hour (hover to see other rain measurements)
** Current wind speed in m/s (hover to see current wind gust speed)